Regional Weather Roundup
Issued by NWS

Home | Current Version | Previous Version | Text Only | Print | Product List | Glossary Off
Versions: 1 2 3 4 5 6 7 8 9 10 11 12 13 14 15 16 17 18 19 20 21 22 23 24 25 26 27 28 29 30 31 32 33 34 35 36 37 38 39 40 41 42 43 44 45 46 47 48 49 50

185
ASUS43 KMKX 231121
RWRWI

WISCONSIN REGIONAL WEATHER ROUNDUP
NATIONAL WEATHER SERVICE MILWAUKEE/SULLIVAN WI
600 AM CDT THU MAR 23 2017

NOTE: "FAIR" INDICATES FEW OR NO CLOUDS BELOW 12,000 FEET WITH NO
SIGNIFICANT WEATHER AND/OR OBSTRUCTIONS TO VISIBILITY.

WIZ001-002-006>008-014>016-023>028-231200-
NORTHWEST WISCONSIN

CITY           SKY/WX    TMP DP  RH WIND       PRES   REMARKS
SUPERIOR ARPT  CLOUDY    30  28  92 E5        30.21F WCI  25
ASHLAND        LGT SNOW  29  27  92 S6        30.27S VSB 3/4 WCI  23
HAYWARD        CLOUDY    31  23  72 S9        30.24F WCI  23
SIREN          CLOUDY    31  24  76 SE8       30.20F WCI  24
CUMBERLAND     CLOUDY    28  25  86 SE12      30.20F WCI  18
RICE LAKE      CLOUDY    31  25  80 SE12      30.24F WCI  21
CHETEK         CLOUDY    30  24  78 SE8G16    30.25F WCI  23
LADYSMITH      FLURRIES  29  27  93 SE7       30.29F WCI  22
EAU CLAIRE     CLOUDY    33  21  61 SE12      30.25F WCI  24
MENOMONIE      CLOUDY    34  21  58 E10       30.23F WCI  26
NEW RICHMOND   CLOUDY    34  18  52 SE10      30.20F WCI  26
OSCEOLA        CLOUDY    35  20  54 SE9       30.22S WCI  28
$$

WIZ003>005-009-010-017-018-231200-
NORTH CENTRAL WISCONSIN

CITY           SKY/WX    TMP DP  RH WIND       PRES   REMARKS
MANITOWISH WTR MIX PCPN  26  21  82 S7        30.27F WCI  18
ARBOR VITAE    CLOUDY    29  20  68 SE8       30.27F WCI  21
WOODRUFF       CLOUDY    29  20  68 SE8       30.27F WCI  21
RHINELANDER    CLOUDY    28  19  69 S7        30.31S WCI  21
EAGLE RIVER    CLOUDY    26  18  71 S5        30.30F WCI  20
LAND O LAKES   CLOUDY    27  19  71 S7        30.30F WCI  19
PHILLIPS       LGT SNOW  26  25  96 S8        30.28S WCI  17
TOMAHAWK       CLOUDY    27  19  72 CALM      30.31F
MEDFORD        LGT SNOW  27  21  79 SE7       30.28F WCI  19
MERRILL        CLOUDY    28  19  71 S7        30.33F WCI  20
$$

WIZ029-030-035-036-043>047-231200-
CENTRAL WISCONSIN

CITY           SKY/WX    TMP DP  RH WIND       PRES   REMARKS
WAUSAU         CLOUDY    27  18  69 SE8       30.33F WCI  19
MOSINEE        CLOUDY    27  19  74 SE7       30.34F WCI  19
MARSHFIELD     FLURRIES  28  19  69 S12       30.30F WCI  18
STEVENS POINT  CLOUDY    25  17  71 SE5       30.35F WCI  19
WAUPACA        CLOUDY    29  20  71 SE3       30.40F
WAUTOMA        CLOUDY    27  21  78 SE7         N/A  WCI  19
WISC RAPIDS    CLOUDY    28  20  71 SE9       30.35F WCI  19
CAMP DOUGLAS   PTCLDY    30  20  66 E9        30.33F WCI  22
$$

WIZ011>013-019>022-031-037>040-048>050-231200-
NORTHEAST WISCONSIN

CITY           SKY/WX    TMP DP  RH WIND       PRES   REMARKS
ANTIGO         CLOUDY    25  18  77 S10       30.34F WCI  14
SHAWANO        CLOUDY    28  21  74 CALM      30.40F
OCONTO         CLOUDY    26  22  82 CALM      30.42S
STURGEON BAY   CLOUDY    29  24  82 S6        30.42F WCI  23
GREEN BAY      CLOUDY    28  23  81 S5        30.43R WCI  23
MANITOWOC      CLOUDY    32  26  78 S12       30.44R WCI  23
APPLETON       CLOUDY    28  19  69 VRB5      30.39R WCI  23
CLINTONVILLE   CLOUDY    28  21  74 S7        30.39F WCI  21
OSHKOSH        CLOUDY    28  22  78 S6        30.40S WCI  22
$$

WIZ032>034-041-042-053>061-231200-
SOUTHWEST WISCONSIN

CITY           SKY/WX    TMP DP  RH WIND       PRES   REMARKS
LA CROSSE      CLOUDY    36  22  56 SE12      30.29F WCI  28
SPARTA         MOCLDY    33  20  58 SE8G16    30.33S WCI  26
VIROQUA        CLOUDY    31  20  64 SE9       30.28S WCI  23
BOSCOBEL       CLOUDY    33  20  58 MISG      30.34S
PRAIRIE DU CHI CLOUDY    34  19  54 E10       30.30F WCI  26
PLATTEVILLE    CLOUDY    32  23  69 SE10      30.32F WCI  23
$$

WIZ056-057-062-063-064-067-068-231200-
SOUTH CENTRAL WISCONSIN

CITY           SKY/WX    TMP DP  RH WIND       PRES   REMARKS
REEDSBURG      CLOUDY    30  19  63 SE5       30.34F WCI  25
BARABOO/DELLS  CLOUDY    30  20  66 SE8       30.34F WCI  22
LONE ROCK      CLOUDY    32  19  58 SE9       30.36F WCI  24
MINERAL POINT  CLOUDY    32  23  69 SE12      30.32S WCI  23
MADISON        CLOUDY    30  21  69 VRB7      30.37S WCI  23
MIDDLETON      CLOUDY    32  22  67 SE8       30.37S WCI  25
WATERTOWN      CLOUDY    30  25  83 E6        30.38F WCI  24
MONROE         CLOUDY    30  23  74 SE9       30.33F WCI  22
JANESVILLE     CLOUDY    32  23  69 SE9       30.37F WCI  24
$$

WIZ051-052-058>065-066-070>072-231200-
SOUTHEAST WISCONSIN

CITY           SKY/WX    TMP DP  RH WIND       PRES   REMARKS
MILWAUKEE      CLOUDY    33  23  66 S8        30.42R WCI  26
WAUKESHA       CLOUDY    28  23  80 SE7       30.40F WCI  21
MILWAUKEE/TIMM CLOUDY    30  23  74 CALM      30.43S
RACINE         CLOUDY    34  21  59 S9        30.44R WCI  27
KENOSHA        CLOUDY    33  23  66 SE12      30.42R WCI  24
FOND DU LAC    CLOUDY    30  22  72 S6        30.41R WCI  24
SHEBOYGAN      CLOUDY    27  24  89 CALM      30.42R
WEST BEND      CLOUDY    27  25  93 SE5       30.40F WCI  21
JUNEAU         CLOUDY    29  24  79 SE7       30.40F WCI  22
$$

LSZ147-162-231200-
LAKE SUPERIOR

STATION/POSITION TIME  TEMP    WIND        PRES    WAVE
                       AIR SEA DIR/SP/G            HT/PER
                 (UTC) (F)     (DEG/KT/KT) (MB)    (FT/S)
DEVILS ISLAND    1100   31     170/  6/ 10 1025.8F
PORT WING        1040   31     160/  9/ 12 1024.4F
SAXON HARBOR     1030   32     160/  6/  9 1024.7F
$$

LMZ867-665-643>646-231200-
LAKE MICHIGAN

STATION/POSITION TIME  TEMP    WIND        PRES    WAVE
                       AIR SEA DIR/SP/G            HT/PER
                 (UTC) (F)     (DEG/KT/KT) (MB)    (FT/S)
CHAMBERS ISLAND  1040   27      CALM  /  3 1029.5F
NORTHPORT PIER   1104   29      CALM  /  3 1030.1
SISTER BAY       1021   28        CALM       N/A
KEWAUNEE LAKESHO 1054   32     180/ 15/ 16 1029.9R
SHEBOYGAN LAKESH 1100   34     170/ 14/ 15 1031.1R
PORT WASHINGTON  1030   35     180/ 11/ 16 1031.2R
MILWAUKEE LAKESH 1050   34     190/  8/  9   N/A
KENOSHA   LAKESH 1100   34     170/ 19/ 20 1030.1
$$

TC  - TEMPERATURE IN CELSIUS
VSB - VISIBILITY IN STATUTE MILES
WCI - WIND CHILL INDEX
HX  - HEAT INDEX





USA.gov is the U.S. government's official web portal to all federal, state and local government web resources and services.